| time (UTC) | temp F | wind direction | speed MPH | gust MPH | rain 1hr in | rain 24hr in | rain mn in | humidity % | barometer mb |
| 20260904173848 | 73 | 291 | 14.0 | 16.0 | 0.00 | 0.03 | 0.01 | 72 | 1016.5 |
| 20260904172848 | 73 | 288 | 4.0 | 15.0 | 0.00 | 0.03 | 0.01 | 75 | 1016.4 |
| 20260904171847 | 73 | 333 | 9.0 | 19.0 | 0.00 | 0.03 | 0.01 | 74 | 1016.4 |
| 20260904165847 | 72 | 5 | 6.0 | 13.0 | 0.00 | 0.03 | 0.01 | 79 | 1016.8 |
| 20260904164846 | 71 | 294 | 4.0 | 15.0 | 0.00 | 0.03 | 0.01 | 78 | 1016.8 |
| 20260904163847 | 72 | 341 | 8.0 | 13.0 | 0.00 | 0.03 | 0.01 | 77 | 1016.8 |
| 20260904162846 | 72 | 342 | 13.0 | 14.0 | 0.00 | 0.03 | 0.01 | 77 | 1016.7 |
| 20260904160846 | 72 | 309 | 12.0 | 14.0 | 0.01 | 0.03 | 0.01 | 78 | 1016.7 |
| 20260904155846 | 71 | 298 | 9.0 | 12.0 | 0.01 | 0.04 | 0.01 | 78 | 1016.6 |
| 20260904154846 | 71 | 320 | 5.0 | 17.0 | 0.01 | 0.04 | 0.01 | 80 | 1016.5 |
| 20260904153845 | 71 | 5 | 8.0 | 13.0 | 0.01 | 0.04 | 0.01 | 81 | 1016.5 |
| 20260904152845 | 71 | 301 | 12.0 | 14.0 | 0.01 | 0.04 | 0.01 | 81 | 1016.6 |
| 20260904151845 | 71 | 10 | 7.0 | 13.0 | 0.01 | 0.04 | 0.01 | 81 | 1016.5 |
| 20260904150845 | 71 | 328 | 3.0 | 12.0 | 0.00 | 0.03 | 0.00 | 83 | 1016.7 |
| 20260904145845 | 70 | 280 | 6.0 | 12.0 | 0.00 | 0.03 | 0.00 | 84 | 1016.6 |
| 20260904144845 | 69 | 338 | 5.0 | 12.0 | 0.00 | 0.03 | 0.00 | 86 | 1016.5 |
| 20260904143844 | 70 | 298 | 2.0 | 8.0 | 0.00 | 0.03 | 0.00 | 88 | 1016.4 |
| 20260904142844 | 69 | 285 | 2.0 | 10.0 | 0.00 | 0.03 | 0.00 | 89 | 1016.6 |
| 20260904141844 | 68 | 315 | 3.0 | 13.0 | 0.00 | 0.03 | 0.00 | 88 | 1016.5 |
| 20260904140844 | 68 | 300 | 4.0 | 12.0 | 0.00 | 0.03 | 0.00 | 91 | 1016.6 |
| 20260904135843 | 68 | 313 | 4.0 | 8.0 | 0.00 | 0.03 | 0.00 | 93 | 1016.7 |
| 20260904134844 | 67 | 336 | 0.0 | 6.0 | 0.00 | 0.03 | 0.00 | 95 | 1016.7 |
| 20260904133844 | 66 | 348 | 3.0 | 8.0 | 0.00 | 0.03 | 0.00 | 95 | 1016.8 |
| 20260904132843 | 66 | 295 | 2.0 | 7.0 | 0.00 | 0.03 | 0.00 | 96 | 1016.8 |
| 20260904130843 | 66 | 298 | 5.0 | 8.0 | 0.00 | 0.03 | 0.00 | 96 | 1016.6 |
| 20260904125843 | 66 | 310 | 3.0 | 12.0 | 0.00 | 0.03 | 0.00 | 96 | 1016.3 |
| 20260904124842 | 66 | 284 | 10.0 | 13.0 | 0.00 | 0.03 | 0.00 | 96 | 1016.4 |
| 20260904123843 | 65 | 311 | 8.0 | 10.0 | 0.00 | 0.03 | 0.00 | 96 | 1016.5 |
| 20260904121842 | 65 | 285 | 8.0 | 10.0 | 0.00 | 0.03 | 0.00 | 98 | 1016.5 |
| 20260904120842 | 65 | 300 | 2.0 | 8.0 | 0.00 | 0.03 | 0.00 | 97 | 1016.6 |
| 20260904115842 | 65 | 296 | 3.0 | 8.0 | 0.00 | 0.03 | 0.00 | 97 | 1016.5 |
| 20260904114842 | 65 | 286 | 3.0 | 10.0 | 0.00 | 0.03 | 0.00 | 97 | 1016.5 |
| 20260904113841 | 65 | 317 | 4.0 | 11.0 | 0.00 | 0.03 | 0.00 | 97 | 1016.3 |
| 20260904112841 | 65 | 284 | 3.0 | 9.0 | 0.00 | 0.03 | 0.00 | 97 | 1016.2 |
| 20260904110841 | 65 | 302 | 2.0 | 6.0 | 0.00 | 0.03 | 0.00 | 97 | 1016.0 |
| 20260904105841 | 64 | 332 | 2.0 | 9.0 | 0.00 | 0.03 | 0.00 | 97 | 1016.1 |
| 20260904104841 | 64 | 291 | 2.0 | 6.0 | 0.00 | 0.03 | 0.00 | 97 | 1016.1 |
| 20260904103841 | 64 | 316 | 2.0 | 5.0 | 0.00 | 0.03 | 0.00 | 97 | 1016.0 |
| 20260904102840 | 64 | 305 | 2.0 | 5.0 | 0.00 | 0.03 | 0.00 | 97 | 1015.9 |
| 20260904101840 | 64 | 307 | 1.0 | 8.0 | 0.00 | 0.03 | 0.00 | 97 | 1015.9 |
| 20260904100840 | 64 | 280 | 3.0 | 8.0 | 0.00 | 0.03 | 0.00 | 97 | 1015.7 |
| 20260904094840 | 65 | 298 | 3.0 | 7.0 | 0.00 | 0.03 | 0.00 | 98 | 1015.9 |
| 20260904092839 | 65 | 300 | 4.0 | 6.0 | 0.00 | 0.03 | 0.00 | 98 | 1015.8 |
| 20260904090839 | 65 | 291 | 1.0 | 6.0 | 0.00 | 0.03 | 0.00 | 99 | 1015.8 |
| 20260904085839 | 65 | 273 | 3.0 | 7.0 | 0.00 | 0.03 | 0.00 | 99 | 1015.6 |
| 20260904084839 | 66 | 304 | 4.0 | 8.0 | 0.00 | 0.03 | 0.00 | 100 | 1015.5 |
| 20260904083839 | 66 | 266 | 6.0 | 8.0 | 0.00 | 0.03 | 0.00 | 100 | 1015.4 |
| 20260904081838 | 66 | 298 | 2.0 | 7.0 | 0.00 | 0.03 | 0.00 | 100 | 1015.3 |
| 20260904080838 | 66 | 306 | 4.0 | 7.0 | 0.00 | 0.03 | 0.00 | 100 | 1015.2 |
| 20260904075838 | 66 | 300 | 1.0 | 8.0 | 0.00 | 0.03 | 0.00 | 100 | 1015.1 |
| 20260904073837 | 66 | 318 | 3.0 | 7.0 | 0.00 | 0.03 | 0.00 | 100 | 1015.1 |
| 20260904072837 | 65 | 318 | 3.0 | 4.0 | 0.00 | 0.03 | 0.00 | 100 | 1015.0 |
| 20260904071837 | 64 | 182 | 0.0 | 2.0 | 0.00 | 0.03 | 0.00 | 100 | 1014.8 |
| 20260904065837 | 65 | 187 | 1.0 | 2.0 | 0.00 | 0.03 | 0.00 | 100 | 1014.8 |
| 20260904064837 | 64 | 187 | 0.0 | 1.0 | 0.00 | 0.04 | 0.00 | 100 | 1014.9 |
| 20260904063836 | 64 | 187 | 0.0 | 1.0 | 0.00 | 0.04 | 0.00 | 100 | 1014.8 |
| 20260904062836 | 65 | 187 | 0.0 | 1.0 | 0.00 | 0.04 | 0.00 | 100 | 1015.0 |
| 20260904061836 | 65 | 187 | 0.0 | 2.0 | 0.00 | 0.04 | 0.00 | 100 | 1015.2 |
| 20260904060836 | 65 | 187 | 0.0 | 1.0 | 0.00 | 0.04 | 0.00 | 100 | 1015.2 |
| 20260904055836 | 65 | 187 | 0.0 | 0.0 | 0.00 | 0.04 | 0.00 | 99 | 1015.4 |
| 20260904054835 | 65 | 187 | 0.0 | 3.0 | 0.00 | 0.04 | 0.00 | 100 | 1015.6 |
| 20260904053835 | 66 | 187 | 2.0 | 3.0 | 0.00 | 0.04 | 0.00 | 100 | 1015.5 |
| 20260904052835 | 66 | 186 | 1.0 | 1.0 | 0.00 | 0.05 | 0.00 | 100 | 1015.6 |
| 20260904051835 | 66 | 186 | 0.0 | 0.0 | 0.00 | 0.07 | 0.00 | 100 | 1015.8 |
| 20260904045834 | 67 | 186 | 0.0 | 2.0 | 0.01 | 0.10 | 0.00 | 100 | 1015.9 |
| 20260904044834 | 67 | 186 | 1.0 | 3.0 | 0.01 | 0.10 | 0.00 | 100 | 1015.9 |
| 20260904042834 | 67 | 198 | 1.0 | 2.0 | 0.01 | 0.10 | 0.00 | 100 | 1016.1 |
| 20260904040903 | 67 | 198 | 1.0 | 2.0 | 0.02 | 0.10 | 0.00 | 100 | 1015.8 |
| 20260904035903 | 67 | 198 | 0.0 | 3.0 | 0.01 | 0.09 | 0.09 | 100 | 1015.5 |
| 20260904034903 | 67 | 198 | 0.0 | 1.0 | 0.01 | 0.09 | 0.09 | 99 | 1015.4 |
| 20260904033903 | 67 | 198 | 0.0 | 1.0 | 0.01 | 0.09 | 0.09 | 99 | 1015.4 |
| 20260904032903 | 67 | 198 | 0.0 | 3.0 | 0.01 | 0.09 | 0.09 | 99 | 1015.3 |
| 20260904031903 | 67 | 188 | 2.0 | 3.0 | 0.00 | 0.09 | 0.08 | 99 | 1015.5 |
| 20260904030902 | 67 | 188 | 0.0 | 1.0 | 0.00 | 0.10 | 0.08 | 99 | 1015.5 |
| 20260904025902 | 67 | 188 | 0.0 | 2.0 | 0.00 | 0.10 | 0.08 | 99 | 1015.5 |
| 20260904023902 | 67 | 188 | 1.0 | 3.0 | 0.00 | 0.13 | 0.08 | 99 | 1015.6 |
| 20260904022902 | 67 | 188 | 1.0 | 2.0 | 0.00 | 0.14 | 0.08 | 99 | 1015.7 |
| 20260904021902 | 68 | 188 | 1.0 | 3.0 | 0.00 | 0.15 | 0.08 | 99 | 1015.9 |
| 20260904020901 | 68 | 188 | 2.0 | 3.0 | 0.00 | 0.18 | 0.08 | 98 | 1015.9 |
| 20260904015901 | 68 | 188 | 2.0 | 4.0 | 0.00 | 0.20 | 0.08 | 98 | 1016.0 |
| 20260904014901 | 68 | 219 | 2.0 | 3.0 | 0.00 | 0.20 | 0.08 | 98 | 1015.9 |
| 20260904013901 | 68 | 221 | 0.0 | 1.0 | 0.00 | 0.22 | 0.08 | 98 | 1016.1 |
| 20260904012901 | 68 | 221 | 0.0 | 3.0 | 0.00 | 0.29 | 0.08 | 98 | 1016.1 |
| 20260904011901 | 68 | 229 | 2.0 | 4.0 | 0.00 | 0.34 | 0.08 | 97 | 1016.0 |
| 20260904010901 | 69 | 325 | 1.0 | 2.0 | 0.00 | 0.36 | 0.08 | 97 | 1016.1 |
| 20260904005900 | 69 | 329 | 0.0 | 3.0 | 0.00 | 0.38 | 0.08 | 97 | 1016.2 |
| 20260904002900 | 69 | 165 | 0.0 | 2.0 | 0.00 | 0.39 | 0.08 | 96 | 1016.0 |
| 20260904000900 | 70 | 165 | 0.0 | 4.0 | 0.00 | 0.39 | 0.08 | 95 | 1015.8 |
| 20260903235859 | 71 | 165 | 2.0 | 5.0 | 0.00 | 0.39 | 0.08 | 94 | 1015.7 |
| 20260903234859 | 71 | 165 | 4.0 | 5.0 | 0.00 | 0.39 | 0.08 | 93 | 1015.7 |
| 20260903233859 | 71 | 182 | 4.0 | 4.0 | 0.00 | 0.39 | 0.08 | 92 | 1015.6 |
| 20260903232859 | 71 | 196 | 2.0 | 4.0 | 0.00 | 0.39 | 0.08 | 92 | 1015.5 |
| 20260903231859 | 72 | 258 | 2.0 | 3.0 | 0.00 | 0.39 | 0.08 | 92 | 1015.9 |
| 20260903230859 | 72 | 265 | 2.0 | 3.0 | 0.00 | 0.39 | 0.08 | 92 | 1015.8 |
| 20260903225858 | 72 | 282 | 0.0 | 2.0 | 0.00 | 0.39 | 0.08 | 91 | 1015.6 |
| 20260903224858 | 73 | 282 | 0.0 | 1.0 | 0.00 | 0.39 | 0.08 | 92 | 1015.4 |
| 20260903222858 | 74 | 282 | 0.0 | 3.0 | 0.00 | 0.39 | 0.08 | 89 | 1015.4 |
| 20260903221858 | 75 | 335 | 1.0 | 1.0 | 0.00 | 0.39 | 0.08 | 89 | 1015.4 |
| 20260903215857 | 77 | 335 | 0.0 | 1.0 | 0.00 | 0.39 | 0.08 | 85 | 1015.6 |
| 20260903214857 | 76 | 335 | 0.0 | 2.0 | 0.00 | 0.39 | 0.08 | 87 | 1015.6 |
| 20260903213857 | 76 | 335 | 1.0 | 2.0 | 0.00 | 0.39 | 0.08 | 85 | 1015.5 |
| 20260903212857 | 76 | 335 | 0.0 | 1.0 | 0.00 | 0.39 | 0.08 | 86 | 1015.5 |
| 20260903211856 | 76 | 335 | 1.0 | 1.0 | 0.00 | 0.39 | 0.08 | 85 | 1015.7 |
| 20260903205856 | 76 | 335 | 1.0 | 4.0 | 0.00 | 0.39 | 0.08 | 84 | 1015.7 |
| 20260903204856 | 77 | 296 | 1.0 | 2.0 | 0.00 | 0.39 | 0.08 | 84 | 1016.0 |
| 20260903203856 | 76 | 296 | 0.0 | 4.0 | 0.00 | 0.39 | 0.08 | 81 | 1016.0 |
| 20260903202856 | 77 | 296 | 2.0 | 6.0 | 0.00 | 0.39 | 0.08 | 79 | 1016.0 |
| 20260903201855 | 78 | 285 | 2.0 | 8.0 | 0.00 | 0.39 | 0.08 | 77 | 1015.9 |
| 20260903200856 | 78 | 332 | 4.0 | 9.0 | 0.00 | 0.39 | 0.08 | 77 | 1015.9 |
| 20260903195855 | 78 | 294 | 4.0 | 8.0 | 0.00 | 0.39 | 0.08 | 76 | 1015.8 |
| 20260903194855 | 77 | 202 | 2.0 | 9.0 | 0.00 | 0.39 | 0.08 | 76 | 1015.8 |
| 20260903193855 | 78 | 289 | 5.0 | 10.0 | 0.00 | 0.39 | 0.08 | 76 | 1015.9 |
| 20260903191855 | 78 | 284 | 1.0 | 7.0 | 0.00 | 0.39 | 0.08 | 75 | 1016.1 |
| 20260903185855 | 77 | 257 | 2.0 | 9.0 | 0.00 | 0.39 | 0.08 | 72 | 1016.3 |
| 20260903184854 | 78 | 250 | 2.0 | 10.0 | 0.00 | 0.39 | 0.08 | 73 | 1016.4 |
| 20260903183854 | 79 | 263 | 6.0 | 9.0 | 0.00 | 0.39 | 0.08 | 69 | 1016.5 |
| 20260903182854 | 79 | 248 | 2.0 | 6.0 | 0.00 | 0.39 | 0.08 | 76 | 1016.5 |
| 20260903181854 | 77 | 313 | 4.0 | 11.0 | 0.00 | 0.39 | 0.08 | 74 | 1016.4 |
| 20260903180854 | 77 | 332 | 4.0 | 10.0 | 0.00 | 0.39 | 0.08 | 78 | 1016.4 |
| 20260903174853 | 77 | 312 | 10.0 | 11.0 | 0.00 | 0.39 | 0.08 | 81 | 1016.5 |